GW4339 Weather Reports


Display with metric or nautical units.
time (UTC)temp
F
wind
direction
speed
MPH
gust
MPH
rain 1hr
in
rain 24hr
in
rain mn
in
humidity
%
barometer
mb
20260504234408 70 253 0.0 0.0 0.00 0.00 0.00 46 1012.8
20260504234028 71 262 0.0 2.0 0.00 0.00 0.00 45 1017.0
20260504233904 71 246 0.0 1.0 0.00 0.00 0.00 46 1012.9
20260504233359 71 325 0.0 0.0 0.00 0.00 0.00 45 1012.9
20260504233021 72 265 2.0 3.0 0.00 0.00 0.00 44 1016.9
20260504232856 72 269 2.0 3.0 0.00 0.00 0.00 44 1012.8
20260504232354 72 305 0.0 0.0 0.00 0.00 0.00 43 1012.8
20260504232055 73 273 1.0 2.0 0.00 0.00 0.00 43 1016.9
20260504231850 73 228 0.0 0.0 0.00 0.00 0.00 43 1012.7
20260504231347 73 349 2.0 3.0 0.00 0.00 0.00 42 1012.6
20260504231049 73 205 0.0 1.0 0.00 0.00 0.00 41 1016.9
20260504230843 73 230 0.0 1.0 0.00 0.00 0.00 41 1012.6
20260504230341 74 257 2.0 3.0 0.00 0.00 0.00 41 1012.7
20260504230042 74 261 3.0 4.0 0.00 0.00 0.00 40 1016.9
20260504225839 74 253 2.0 7.0 0.00 0.00 0.00 40 1012.8
20260504225335 74 249 2.0 4.0 0.00 0.00 0.00 41 1012.7
20260504225037 74 269 2.0 6.0 0.00 0.00 0.00 40 1016.9
20260504224833 74 192 2.0 4.0 0.00 0.00 0.00 40 1012.7
20260504224330 74 220 3.0 6.0 0.00 0.00 0.00 40 1012.7
20260504224033 74 267 2.0 4.0 0.00 0.00 0.00 39 1016.9
20260504223826 74 234 1.0 2.0 0.00 0.00 0.00 40 1012.7
20260504223322 75 264 0.0 2.0 0.00 0.00 0.00 39 1012.7
20260504223029 75 273 3.0 6.0 0.00 0.00 0.00 38 1016.9
20260504222819 75 299 2.0 3.0 0.00 0.00 0.00 37 1012.7
20260504222316 75 294 2.0 8.0 0.00 0.00 0.00 37 1012.9
20260504222025 76 260 4.0 8.0 0.00 0.00 0.00 37 1017.0
20260504221814 76 298 2.0 8.0 0.00 0.00 0.00 36 1012.9
20260504221310 77 231 0.0 4.0 0.00 0.00 0.00 37 1012.9
20260504221021 76 219 2.0 3.0 0.00 0.00 0.00 36 1017.1
20260504220808 77 250 0.0 3.0 0.00 0.00 0.00 35 1012.8
20260504220304 75 278 4.0 6.0 0.00 0.00 0.00 36 1012.8
20260504220017 76 273 5.0 15.0 0.00 0.00 0.00 36 1017.0
20260504215802 76 238 3.0 6.0 0.00 0.00 0.00 37 1012.9
20260504215258 76 164 7.0 13.0 0.00 0.00 0.00 35 1012.9
20260504215055 76 246 4.0 11.0 0.00 0.00 0.00 35 1017.1
20260504214754 77 260 4.0 11.0 0.00 0.00 0.00 37 1012.9
20260504214250 76 261 7.0 9.0 0.00 0.00 0.00 35 1013.1
20260504214050 77 254 4.0 14.0 0.00 0.00 0.00 35 1017.1
20260504213747 77 261 2.0 4.0 0.00 0.00 0.00 35 1013.0
20260504213243 77 194 2.0 8.0 0.00 0.00 0.00 35 1013.0
20260504213039 76 273 4.0 11.0 0.00 0.00 0.00 35 1017.0
20260504212740 76 226 2.0 9.0 0.00 0.00 0.00 35 1012.8
20260504212237 76 261 3.0 11.0 0.00 0.00 0.00 35 1012.9
20260504212035 76 269 4.0 8.0 0.00 0.00 0.00 35 1017.0
20260504211735 76 264 2.0 4.0 0.00 0.00 0.00 36 1012.8
20260504211230 76 218 2.0 6.0 0.00 0.00 0.00 35 1013.0
20260504211042 77 251 2.0 6.0 0.00 0.00 0.00 34 1017.0
20260504210728 77 316 4.0 6.0 0.00 0.00 0.00 34 1012.8
20260504210225 77 251 1.0 3.0 0.00 0.00 0.00 35 1012.7
20260504210038 76 272 4.0 10.0 0.00 0.00 0.00 34 1017.0
20260504205722 76 218 2.0 10.0 0.00 0.00 0.00 34 1012.9
20260504205220 77 237 5.0 8.0 0.00 0.00 0.00 34 1012.8
20260504205114 77 264 4.0 9.0 0.00 0.00 0.00 34 1017.0
20260504204718 77 201 5.0 8.0 0.00 0.00 0.00 34 1012.9
20260504204216 77 180 2.0 11.0 0.00 0.00 0.00 34 1012.9
20260504204047 77 273 4.0 9.0 0.00 0.00 0.00 33 1017.1
20260504203715 78 251 5.0 9.0 0.00 0.00 0.00 33 1013.0
20260504203207 77 158 9.0 13.0 0.00 0.00 0.00 33 1012.8
20260504203036 78 262 4.0 7.0 0.00 0.00 0.00 33 1016.9
20260504202706 78 296 2.0 4.0 0.00 0.00 0.00 32 1012.8
20260504202204 78 336 3.0 8.0 0.00 0.00 0.00 33 1013.0
20260504202023 78 257 3.0 6.0 0.00 0.00 0.00 33 1017.0
20260504201701 78 239 2.0 13.0 0.00 0.00 0.00 32 1012.9
20260504201158 78 307 5.0 6.0 0.00 0.00 0.00 33 1012.8
20260504201051 78 294 4.0 10.0 0.00 0.00 0.00 32 1017.0
20260504200655 78 41 4.0 6.0 0.00 0.00 0.00 32 1012.8
20260504200151 78 325 6.0 8.0 0.00 0.00 0.00 31 1013.1
20260504200042 78 272 2.0 4.0 0.00 0.00 0.00 31 1017.2
20260504195648 78 218 0.0 6.0 0.00 0.00 0.00 30 1013.1
20260504195144 78 315 2.0 3.0 0.00 0.00 0.00 32 1013.3
20260504195051 78 228 2.0 6.0 0.00 0.00 0.00 31 1017.5
20260504194641 78 222 0.0 3.0 0.00 0.00 0.00 32 1013.4
20260504194137 77 262 3.0 16.0 0.00 0.00 0.00 33 1013.2
20260504194016 76 252 4.0 16.0 0.00 0.00 0.00 32 1017.6
20260504193633 76 82 0.0 7.0 0.00 0.00 0.00 31 1013.3
20260504193132 78 198 2.0 2.0 0.00 0.00 0.00 31 1013.5
20260504193046 77 262 2.0 7.0 0.00 0.00 0.00 31 1017.7
20260504192629 77 355 4.0 6.0 0.00 0.00 0.00 30 1013.5
20260504192127 76 263 3.0 11.0 0.00 0.00 0.00 32 1013.5
20260504192033 76 255 3.0 10.0 0.00 0.00 0.00 31 1017.8
20260504191626 76 264 6.0 11.0 0.00 0.00 0.00 31 1013.7
20260504191121 77 173 2.0 9.0 0.00 0.00 0.00 34 1013.6
20260504191023 77 309 3.0 9.0 0.00 0.00 0.00 31 1017.9
20260504190617 77 211 1.0 4.0 0.00 0.00 0.00 33 1013.7
20260504190114 77 251 2.0 4.0 0.00 0.00 0.00 31 1014.0
20260504190051 76 256 4.0 7.0 0.00 0.00 0.00 32 1018.1
20260504185611 77 259 4.0 7.0 0.00 0.00 0.00 32 1013.9
20260504185107 77 267 5.0 8.0 0.00 0.00 0.00 32 1014.0
20260504185102 76 242 3.0 8.0 0.00 0.00 0.00 32 1018.2
20260504184603 77 176 2.0 4.0 0.00 0.00 0.00 31 1013.8
20260504184058 75 228 3.0 6.0 0.00 0.00 0.00 34 1014.2
20260504184032 75 258 3.0 6.0 0.00 0.00 0.00 33 1018.3
20260504183556 75 295 4.0 7.0 0.00 0.00 0.00 31 1014.2
20260504183054 75 300 3.0 6.0 0.00 0.00 0.00 34 1014.4
20260504183021 75 280 5.0 9.0 0.00 0.00 0.00 33 1018.4
20260504182550 75 250 4.0 6.0 0.00 0.00 0.00 35 1014.4
20260504182132 74 261 4.0 10.0 0.00 0.00 0.00 34 1018.6
20260504182048 74 241 4.0 10.0 0.00 0.00 0.00 34 1014.5
20260504181545 75 284 5.0 8.0 0.00 0.00 0.00 34 1014.5
20260504181044 75 199 2.0 4.0 0.00 0.00 0.00 34 1019.0
20260504180542 75 220 2.0 3.0 0.00 0.00 0.00 35 1014.8
20260504180040 74 327 5.0 10.0 0.00 0.00 0.00 33 1014.8
20260504180035 74 260 4.0 8.0 0.00 0.00 0.00 36 1019.0
20260504175537 74 248 2.0 10.0 0.00 0.00 0.00 37 1014.8
20260504175034 75 123 2.0 4.0 0.00 0.00 0.00 33 1014.9
20260504175031 74 251 2.0 4.0 0.00 0.00 0.00 36 1019.0
20260504174532 73 264 6.0 9.0 0.00 0.00 0.00 36 1014.8
20260504174028 75 248 4.0 4.0 0.00 0.00 0.00 35 1015.0
20260504173525 74 258 3.0 10.0 0.00 0.00 0.00 37 1015.0
20260504173024 73 280 3.0 7.0 0.00 0.00 0.00 37 1019.3
20260504172519 73 263 6.0 7.0 0.00 0.00 0.00 36 1015.3
20260504172022 71 258 5.0 13.0 0.00 0.00 0.00 36 1019.5
20260504172015 71 266 3.0 7.0 0.00 0.00 0.00 37 1015.3
20260504171512 71 231 5.0 13.0 0.00 0.00 0.00 36 1015.5
20260504171018 72 257 6.0 15.0 0.00 0.00 0.00 37 1019.8
20260504171009 71 164 5.0 11.0 0.00 0.00 0.00 36 1015.6
20260504170505 73 247 1.0 3.0 0.00 0.00 0.00 40 1015.4
20260504170155 72 245 4.0 9.0 0.00 0.00 0.00 37 1019.7
20260504160425 70 278 3.0 7.0 0.00 0.00 0.00 39 1016.4
20260504151027 67 284 1.0 4.0 0.00 0.00 0.00 42 1020.8
20260504150849 67 289 1.0 4.0 0.00 0.00 0.00 42 1016.6
20260504150345 66 235 0.0 4.0 0.00 0.00 0.00 41 1016.6
20260504141316 61 233 0.0 2.0 0.00 0.00 0.00 52 1016.9
20260504141055 61 307 3.0 6.0 0.00 0.00 0.00 52 1021.2
20260504140812 61 93 4.0 7.0 0.00 0.00 0.00 51 1017.2
20260504140308 62 220 1.0 6.0 0.00 0.00 0.00 52 1017.2
20260504130737 57 261 2.0 6.0 0.00 0.00 0.00 59 1017.4
20260504130233 57 342 2.0 6.0 0.00 0.00 0.00 59 1017.4
20260504120156 52 294 1.0 1.0 0.00 0.00 0.00 69 1017.8
20260504110624 50 274 0.0 0.0 0.00 0.00 0.00 74 1017.9
20260504110120 49 255 0.0 0.0 0.00 0.00 0.00 75 1017.9
20260504100545 50 261 0.0 0.0 0.00 0.00 0.00 71 1017.9
20260504081939 50 259 0.0 2.0 0.00 0.00 0.00 76 1018.1
20260504081436 51 245 0.0 1.0 0.00 0.00 0.00 77 1018.1
20260504080932 50 252 0.0 1.0 0.00 0.00 0.00 78 1018.0
20260504080429 51 241 0.0 1.0 0.00 0.00 0.00 79 1018.3
20260504070357 47 33 0.0 0.0 0.00 0.00 0.00 85 1018.3
20260504050744 46 108 0.0 0.0 0.00 0.00 0.00 88 1018.4
20260504050241 46 108 0.0 0.0 0.00 0.00 0.00 88 1018.4
20260504045738 46 108 0.0 1.0 0.00 0.00 0.00 88 1018.3
20260504045233 46 108 0.0 1.0 0.00 0.00 0.00 88 1018.2
20260504044731 45 108 0.0 0.0 0.00 0.00 0.00 88 1018.1
20260504044229 45 107 1.0 1.0 0.00 0.00 0.00 89 1018.1
20260504043725 45 211 0.0 0.0 0.00 0.00 0.00 89 1018.1
20260504043222 45 211 0.0 0.0 0.00 0.00 0.00 89 1018.2
20260504042720 44 211 0.0 0.0 0.00 0.00 0.00 89 1018.1
20260504042216 44 211 0.0 0.0 0.00 0.00 0.00 89 1018.2
20260504041712 44 211 0.0 0.0 0.00 0.00 0.00 89 1018.3
20260504041208 43 211 0.0 0.0 0.00 0.00 0.00 90 1018.2
20260504040705 43 211 0.0 0.0 0.00 0.00 0.00 90 1018.1
20260504040202 43 211 0.0 1.0 0.00 0.00 0.00 90 1018.2
20260504035658 43 211 0.0 0.0 0.00 0.00 0.00 90 1018.1
20260504035156 43 211 0.0 0.0 0.00 0.00 0.00 90 1018.0
20260504034653 43 211 0.0 0.0 0.00 0.00 0.00 90 1018.2
20260504034150 43 211 0.0 0.0 0.00 0.00 0.00 90 1018.1
20260504033648 43 211 0.0 0.0 0.00 0.00 0.00 90 1018.2
20260504033145 43 211 0.0 0.0 0.00 0.00 0.00 89 1018.1
20260504032641 43 211 0.0 0.0 0.00 0.00 0.00 89 1018.2
20260504032139 43 211 0.0 0.0 0.00 0.00 0.00 89 1018.0
20260504031636 43 211 0.0 0.0 0.00 0.00 0.00 88 1018.0
20260504031132 43 211 0.0 0.0 0.00 0.00 0.00 88 1018.0
20260504030629 44 211 0.0 0.0 0.00 0.00 0.00 87 1017.8
20260504030125 44 211 0.0 0.0 0.00 0.00 0.00 87 1018.0
20260504025622 44 211 0.0 0.0 0.00 0.00 0.00 86 1018.1
20260504025119 44 211 0.0 0.0 0.00 0.00 0.00 85 1018.0
20260504024617 44 211 0.0 0.0 0.00 0.00 0.00 85 1018.0
20260504024113 44 211 0.0 0.0 0.00 0.00 0.00 84 1018.0
20260504023610 44 211 0.0 1.0 0.00 0.00 0.00 84 1018.0
20260504023105 44 211 0.0 0.0 0.00 0.00 0.00 83 1017.9
20260504022602 44 211 0.0 0.0 0.00 0.00 0.00 82 1017.9
20260504022058 45 234 0.0 0.0 0.00 0.00 0.00 82 1018.1
20260504021556 45 234 0.0 0.0 0.00 0.00 0.00 80 1018.0
20260504021053 45 235 0.0 0.0 0.00 0.00 0.00 80 1017.8
20260504020550 45 235 0.0 0.0 0.00 0.00 0.00 80 1017.9
20260504020046 45 235 0.0 0.0 0.00 0.00 0.00 79 1017.8
20260504015542 45 235 0.0 0.0 0.00 0.00 0.00 79 1017.5
20260504015038 45 237 0.0 0.0 0.00 0.00 0.00 78 1017.8
20260504014535 46 237 0.0 0.0 0.00 0.00 0.00 77 1017.6
20260504014032 46 237 0.0 0.0 0.00 0.00 0.00 76 1017.9
20260504013530 46 245 0.0 0.0 0.00 0.00 0.00 76 1017.9
20260504013026 46 245 0.0 0.0 0.00 0.00 0.00 76 1017.8
20260504012524 46 245 0.0 0.0 0.00 0.00 0.00 75 1017.8
20260504012021 46 245 0.0 0.0 0.00 0.00 0.00 75 1017.5
20260504011517 46 245 0.0 0.0 0.00 0.00 0.00 74 1017.3
20260504011013 47 245 0.0 0.0 0.00 0.00 0.00 73 1017.4
20260504010509 47 245 0.0 0.0 0.00 0.00 0.00 71 1017.4
20260504010005 47 251 0.0 0.0 0.00 0.00 0.00 71 1017.5
20260504005502 47 251 0.0 0.0 0.00 0.00 0.00 70 1017.4
20260504005000 48 251 0.0 0.0 0.00 0.00 0.00 69 1017.4
20260504004457 48 251 0.0 0.0 0.00 0.00 0.00 68 1017.3
20260504003954 49 251 0.0 0.0 0.00 0.00 0.00 67 1017.3
20260504003450 49 253 0.0 0.0 0.00 0.00 0.00 66 1017.3
20260504003032 50 0.0 0.0 0.00 0.00 0.00 65 1021.4
20260504002947 49 253 0.0 0.0 0.00 0.00 0.00 65 1017.4
20260504002444 50 245 0.0 0.0 0.00 0.00 0.00 64 1017.3
20260504002020 51 0.0 0.0 0.00 0.00 0.00 61 1021.4
20260504001942 51 245 0.0 0.0 0.00 0.00 0.00 61 1017.2
20260504001439 51 245 0.0 0.0 0.00 0.00 0.00 60 1017.3
20260504001110 52 0.0 0.0 0.00 0.00 0.00 58 1021.2
20260504000935 52 245 0.0 0.0 0.00 0.00 0.00 58 1017.1
20260504000432 52 245 0.0 0.0 0.00 0.00 0.00 57 1017.0
20260504000041 53 0.0 0.0 0.00 0.00 0.00 55 1021.2
20260503235930 53 245 0.0 0.0 0.00 0.00 0.00 55 1017.0
20260503235427 54 245 0.0 0.0 0.00 0.00 0.00 55 1017.0
20260503235031 54 0.0 0.0 0.00 0.00 0.00 53 1021.1
20260503234925 54 245 0.0 0.0 0.00 0.00 0.00 53 1016.7